Powrót do katalogu

FENGYUN 1C DEB

AktywnyPO
NORAD 31083·DEBRIS·🇨🇳 China

Wystrzelony May 10, 1999 z Taiyuan Satellite Launch Center

Loading…

Następne Przeloty (najbliższe 24 godziny)

TLE

ŚwieżeSource: Space-Track

Epoka: Sep 14, 2026, 08:31 UTC

1 31083U 99025BGD 26257.35508009  .00008648  00000-0  14800-2 0  9993
2 31083  98.6612  34.4495 0029113 170.9742 217.6199 14.68814806 17407

Śledź FENGYUN 1C DEB w czasie rzeczywistym z AllMySat

Download on the App Store